Showing default

ICEYE-X4, 44390

Orbit data source: Space-Track

ICEYE-X4, 44390 is a payload satellite owned by ICEYE (FI) in SSO that was launched on Fri, 05 Jul 2019 UTC via a SOYUZ-2-1B launch vehicle from the Vostochny Cosmodrome (VOSTO). Payload-class satellites include a variety of spacecraft equipped with specific instruments for various scientific and technological missions. These include communications satellites like Starlink; space stations such as the ISS; scientific satellites like the Hubble; Earth observation satellites from companies like Planet Labs, Umbra, and HawkEye 360; GPS; miniature CubeSats for education and research; and military/defense satellites.

Loading next visibility...
Identifier
44390, 2019-038D
Orbit
SSO
Country
Flag of FIFI / FIN
Related business
Manufacturer
ICEYE
Mission
Operational Commercial Radar Imaging
Bus & Motor
ICEYE, Unknown motor
Mass
80 kg wet, 80 kg dry
Launch date (UTC)
2019-07-05 (6 years ago)
Launch vehicle
SOYUZ-2-1B
Launch site
Vostochny Cosmodrome (VOSTO)
Object type
Payload
Rocket body
Debris
Shape & HBR
Box + 1 Pan, 1.6 m
Radar Cross Section
1.837 m², Medium (>0.1 m² and < 1m²)

Expand to show TLE details & history
Last TLE update: 18 hours ago

TLE from 18 hours ago
0 ICEYE-X4
1 44390U 19038D   25242.29772299  .00013755  00000-0  61503-3 0  9992
2 44390  97.9042 254.3236 0014369 232.7164 127.2761 15.21352698337456
Epoch: 2025-08-30T07:08Z
TLE epoch observation values (Epoch: 2025-08-30T07:08:43.266Z)
Latitude
-0.00002°
Longitude
168.40929°
Altitude
510.835 km
Speed
7.605 km/s
True Right ascension
16h 57m 17s
True Declination
0° 00' 00"
Sunlit
Object was in daylight at epoch
Visualization orbit readout
Latitude
Unknown
Longitude
Unknown
Altitude
Unknown
Speed
Unknown
Apparent Right ascension
Unknown
Apparent Declination
Unknown
Sunlit
N/A
Visualization observer readout
Local Sidereal Time
16:54:02
Azimuth
Unknown
Elevation
Unknown
Doppler factor
Unknown
Orbital elements
Apogee altitude
508.627 km
Perigee altitude
488.864 km
Semi-major axis
6,876.883 km
Eccentricity
0.00144
Inclination
97.9042°
RAAN
254.3236°
Arg. of periapsis
232.7164°
True anomaly
127.40698°
Mean anomaly
127.2761°
Eccentric anomaly
127.34155°
Mean motion
3.80589 °/min
Orbital period
94.59 mins
BSTAR
0.00061503
Loading maneuver chart data...
Computing Atmospheric mass density...

Documentation

Showing up to 5 results
|